This is the latest recevied weather packets stored in our database for station/object K5NWZ. If no packets are shown the sender has not sent any weather packets the latest 1 day(s).
| Time | Temp. | Humidity | Pressure | Rain* | Wind** | Luminosity | Snow |
|---|---|---|---|---|---|---|---|
| 1778033409 | 0° C | 97% | 1023.9 hPa | 0 mm | - | 0 W/m² | - |
| 1778032501 | 0.56° C | 97% | 1023.7 hPa | 0 mm | - | 1 W/m² | - |
| 1778031289 | 0° C | 97% | 1023.4 hPa | 0 mm | - | 3 W/m² | - |
| 1778030985 | 0° C | 97% | 1023.4 hPa | 0 mm | - | 4 W/m² | - |
| 1778030682 | 0° C | 97% | 1023.3 hPa | 0 mm | - | 4 W/m² | - |
| 1778030379 | 0° C | 97% | 1023.4 hPa | 0 mm | - | 5 W/m² | - |
| 1778030076 | 0° C | 97% | 1023.3 hPa | 0 mm | - | 7 W/m² | - |
| 1778029773 | 0° C | 97% | 1023.2 hPa | 0 mm | - | 8 W/m² | - |
| 1778029472 | 0.56° C | 97% | 1023.2 hPa | 0 mm | - | 8 W/m² | - |
| 1778029167 | 0° C | 97% | 1023.2 hPa | 0 mm | - | 8 W/m² | - |
| 1778028560 | 0° C | 97% | 1023.4 hPa | 0 mm | - | 14 W/m² | - |
| 1778028259 | 0° C | 97% | 1023.2 hPa | 0 mm | - | 15 W/m² | - |
| 1778027954 | 0° C | 97% | 1023.2 hPa | 0 mm | - | 14 W/m² | - |
| 1778027348 | 0° C | 97% | 1023.2 hPa | 0 mm | - | 16 W/m² | - |
| 1778027044 | 0° C | 97% | 1023.2 hPa | 0 mm | - | 21 W/m² | - |
| 1778026739 | 0° C | 97% | 1023.3 hPa | 0 mm | - | 21 W/m² | - |
| 1778024922 | 0° C | 96% | 1022.6 hPa | 0 mm | - | 30 W/m² | - |
| 1778023712 | 0° C | 96% | 1022.7 hPa | 0 mm | - | 23 W/m² | - |
| 1778022804 | 0° C | 96% | 1023 hPa | 0 mm | - | 30 W/m² | - |
| 1778019160 | 0.56° C | 96% | 1022.5 hPa | 1.78 mm | - | 85 W/m² | - |
| 1778017042 | 0.56° C | 96% | 1022.5 hPa | 1.27 mm | - | 109 W/m² | - |
| 1778015829 | 0.56° C | 96% | 1022.6 hPa | 1.27 mm | - | 112 W/m² | - |
| 1778014617 | 0.56° C | 96% | 1023 hPa | 0 mm | - | 110 W/m² | - |
* Rain latest hour (hover to see other rain measurements)
** Current wind speed in m/s (hover to see current wind gust speed)